Location: Kam�li
(14.6864°N, 3.1482°W)
Time: 01:24:47
(UTC+00:00)

Meteor 1-11 - Pass Details

Date: 29 October 2020
Orbit: 842 x 885 km, 81.2° (Epoch: 02 December)

Event Time Altitude Azimuth Distance (km) Brightness Sun altitude
Rises 17:53:47 0° 353° (N) 3,459 7.3 -2.9°
Reaches altitude 10° 17:56:12 10° 353° (N) 2,526 6.6 -3.4°
Maximum altitude 18:01:58 87° 266° (W) 886 4.4 -4.8°
Drops below altitude 10° 18:07:46 10° 176° (S) 2,538 6.8 -6.2°
Sets 18:10:12 0° 176° (S) 3,477 7.5 -6.7°
